Regional Weather Roundup
Issued by NWS

Current Version | Previous Version | Text Only | Print | Product List | Glossary On
Versions: 1 2 3 4 5 6 7 8 9 10 11 12 13 14 15 16 17 18 19 20 21 22 23 24 25 26 27 28 29 30 31 32 33 34 35 36 37 38 39 40 41 42 43 44 45 46 47 48 49 50
000
ASUS45 KABQ 271010
RWRNM
WEATHER ROUNDUP FOR NEW MEXICO
NATIONAL WEATHER SERVICE ALBUQUERQUE NM
400 AM MDT FRI MAR 27 2015

NOTE: "FAIR" MEANS FEW OR NO CLOUDS BELOW 12,000 FEET AGL WITH NO
       SIGNIFICANT WEATHER OR OBSTRUCTIONS TO VISION.

      THIS PRODUCT IS RELEASED AS TWO VERSIONS.  ONE VERSION NEAR
      THE TOP OF THE HOUR CONTAINING PRELIMINARY DATA FROM ALBUQUERQUE
      AND OTHER STATIONS.  A FINAL VERSION WITH ADDITIONAL DATA IS
      ISSUED ABOUT 10 MINUTES AFTER THE HOUR.

NMZ501-503-504-510>518-271100-
NORTHWEST PLATEAU/NORTHCENTRAL MOUNTAINS

CITY           SKY/WX    TMP DP  RH WIND       PRES   REMARKS
FARMINGTON     CLEAR     40  17  39 CALM      30.27S
LOS ALAMOS     CLEAR     46  15  29 NW7       30.30S
SANTA FE       CLEAR     36  16  44 N3        30.26S
TAOS           PTCLDY    32  18  55 N5        30.31S WCI  27
ANGEL FIRE     FAIR      24  20  83 CALM      30.32F

$$
NMZ402-403-502-505>509-271100-
WESTCENTRAL MOUNTAINS/SOUTHWEST MOUNTAINS

CITY           SKY/WX    TMP DP  RH WIND       PRES   REMARKS
GALLUP         CLEAR     23   9  55 NE5       30.34F WCI  17
GRANTS         CLEAR     27  15  58 NW14      30.34F WCI  16
SILVER CITY    CLEAR     39  23  52 N13       30.29F WCI  32

$$
NMZ407-409-411-412-271100-
SOUTHERN DESERTS

CITY           SKY/WX    TMP DP  RH WIND       PRES   REMARKS
LORDSBURG      FAIR      43  23  45 S7        30.24S
DEMING         CLEAR     41  23  48 W6        30.24F
LAS CRUCES     CLEAR     44  22  42 CALM      30.25F
HOLLOMAN AFB   PTCLDY    45  21  38 E2        30.22S
ALAMOGORDO     PTCLDY    45  19  36 SE5       30.24S
T OR C         CLEAR     43  20  39 E5        30.24F

$$
NMZ519>523-271100-
CENTRAL VALLEYS/CENTRAL HIGHLANDS

CITY           SKY/WX    TMP DP  RH WIND       PRES   REMARKS
ALBUQUERQUE    PTCLDY    46  19  34 E6        30.25F
DOUBLE EAGLE   PTCLDY    38  15  39 CALM      30.27F
MORIARTY ARPT  FAIR      36  15  41 N6        30.27S WCI  32
CLINES CORNERS PTCLDY    39  16  39 NW13      30.25R WCI  31
BELEN          FAIR      36  20  53 NE3       30.25S
SOCORRO        FAIR      40  17  38 S5        30.24F

$$
NMZ524>526-539-540-271100-
SOUTHCENTRAL MOUNTAINS

CITY           SKY/WX    TMP DP  RH WIND       PRES   REMARKS
RUIDOSO        PTCLDY    45  14  29 CALM      30.29S

$$
NMZ527>531-271100-
NORTHEAST HIGHLANDS/NORTHEAST PLAINS

CITY           SKY/WX    TMP DP  RH WIND       PRES   REMARKS
LAS VEGAS      PTCLDY    35  17  47 E6        30.25S WCI  30
RATON          CLEAR     31  21  66 N6        30.22F WCI  25
CLAYTON        CLEAR     41  22  46 W8        30.18S

$$
NMZ532>537-271100-
EASTCENTRAL PLAINS

CITY           SKY/WX    TMP DP  RH WIND       PRES   REMARKS
TUCUMCARI      CLEAR     38  23  55 SW6       30.14F WCI  33
CANNON AFB     CLEAR     39  24  53 CALM      30.17F
CLOVIS AIRPORT CLEAR     41  23  48 W10       30.17F

$$
NMZ028-029-538-271100-
SOUTHEAST PLAINS

CITY           SKY/WX    TMP DP  RH WIND       PRES   REMARKS
ROSWELL        PTCLDY    37  27  67 VRB3      30.15F
ARTESIA        CLEAR     39  25  56 SW5       30.18F
CARLSBAD       CLEAR     39  31  72 CALM      30.16F
HOBBS          FAIR      39  25  56 SW7       30.20S WCI  34


$$



USA.gov is the U.S. government's official web portal to all federal, state and local government web resources and services.